| time (UTC) | temp F | wind direction | speed MPH | gust MPH | rain 1hr in | rain 24hr in | rain mn in | humidity % | barometer mb |
| 20260508073530 | 44 | 45 | 1.0 | 3.0 | 0.00 | 0.00 | 0.00 | 62 | 1018.0 |
| 20260508073055 | 43 | 0 | 1.0 | 2.0 | 0.00 | 0.00 | 0.00 | 59 | 1018.1 |
| 20260508072531 | 43 | 57 | 0.0 | 2.0 | 0.00 | 0.00 | 0.00 | 62 | 1018.1 |
| 20260508072032 | 43 | 47 | 0.0 | 2.0 | 0.00 | 0.00 | 0.00 | 61 | 1018.1 |
| 20260508071543 | 43 | 360 | 0.0 | 2.0 | 0.00 | 0.00 | 0.00 | 61 | 1018.1 |
| 20260508071030 | 42 | 25 | 0.0 | 2.0 | 0.00 | 0.00 | 0.00 | 63 | 1018.1 |
| 20260508070530 | 42 | 60 | 0.0 | 3.0 | 0.00 | 0.00 | 0.00 | 65 | 1018.1 |
| 20260508070048 | 42 | 47 | 0.0 | 3.0 | 0.00 | 0.00 | 0.00 | 65 | 1018.2 |
| 20260508065532 | 41 | 0 | 0.0 | 1.0 | 0.00 | 0.00 | 0.00 | 65 | 1018.1 |
| 20260508065029 | 41 | 0 | 0.0 | 3.0 | 0.00 | 0.00 | 0.00 | 66 | 1018.1 |
| 20260508064549 | 41 | 84 | 0.0 | 3.0 | 0.00 | 0.00 | 0.00 | 66 | 1018.2 |
| 20260508064029 | 41 | 31 | 0.0 | 2.0 | 0.00 | 0.00 | 0.00 | 66 | 1018.2 |
| 20260508063532 | 41 | 0 | 0.0 | 2.0 | 0.00 | 0.00 | 0.00 | 67 | 1018.3 |
| 20260508063044 | 41 | 0 | 0.0 | 0.0 | 0.00 | 0.00 | 0.00 | 66 | 1018.4 |
| 20260508062532 | 41 | 0 | 0.0 | 0.0 | 0.00 | 0.00 | 0.00 | 68 | 1018.4 |
| 20260508062031 | 40 | 0 | 0.0 | 0.0 | 0.00 | 0.00 | 0.00 | 69 | 1018.4 |
| 20260508061543 | 40 | 0 | 0.0 | 1.0 | 0.00 | 0.00 | 0.00 | 68 | 1018.4 |
| 20260508061035 | 40 | 0 | 0.0 | 1.0 | 0.00 | 0.00 | 0.00 | 69 | 1018.5 |
| 20260508060532 | 40 | 0 | 0.0 | 2.0 | 0.00 | 0.00 | 0.00 | 66 | 1018.5 |
| 20260508060042 | 40 | 65 | 0.0 | 2.0 | 0.00 | 0.00 | 0.00 | 69 | 1018.5 |
| 20260508055532 | 41 | 46 | 0.0 | 2.0 | 0.00 | 0.00 | 0.00 | 69 | 1018.5 |
| 20260508055032 | 40 | 0 | 0.0 | 2.0 | 0.00 | 0.00 | 0.00 | 71 | 1018.4 |
| 20260508054547 | 40 | 50 | 0.0 | 2.0 | 0.00 | 0.00 | 0.00 | 72 | 1018.4 |
| 20260508054033 | 40 | 32 | 0.0 | 2.0 | 0.00 | 0.00 | 0.00 | 72 | 1018.4 |
| 20260508053532 | 40 | 0 | 0.0 | 0.0 | 0.00 | 0.00 | 0.00 | 71 | 1018.5 |
| 20260508053052 | 40 | 0 | 0.0 | 0.0 | 0.00 | 0.00 | 0.00 | 73 | 1018.4 |
| 20260508052533 | 39 | 0 | 0.0 | 0.0 | 0.00 | 0.00 | 0.00 | 74 | 1018.4 |
| 20260508052033 | 40 | 0 | 0.0 | 0.0 | 0.00 | 0.00 | 0.00 | 74 | 1018.4 |
| 20260508051546 | 40 | 0 | 0.0 | 0.0 | 0.00 | 0.00 | 0.00 | 74 | 1018.4 |
| 20260508051033 | 40 | 0 | 0.0 | 0.0 | 0.00 | 0.00 | 0.00 | 73 | 1018.3 |
| 20260508050533 | 40 | 0 | 0.0 | 0.0 | 0.00 | 0.00 | 0.00 | 72 | 1018.4 |
| 20260508050052 | 41 | 0 | 0.0 | 0.0 | 0.00 | 0.00 | 0.00 | 72 | 1018.3 |
| 20260508045532 | 41 | 0 | 0.0 | 0.0 | 0.00 | 0.00 | 0.00 | 71 | 1018.4 |
| 20260508045032 | 41 | 0 | 0.0 | 0.0 | 0.00 | 0.00 | 0.00 | 72 | 1018.3 |
| 20260508044543 | 41 | 0 | 0.0 | 0.0 | 0.00 | 0.00 | 0.00 | 71 | 1018.3 |
| 20260508044033 | 41 | 0 | 0.0 | 0.0 | 0.00 | 0.00 | 0.00 | 72 | 1018.4 |
| 20260508043532 | 41 | 0 | 0.0 | 0.0 | 0.00 | 0.00 | 0.00 | 73 | 1018.3 |
| 20260508043040 | 40 | 0 | 0.0 | 0.0 | 0.00 | 0.00 | 0.00 | 76 | 1018.4 |
| 20260508042529 | 39 | 0 | 0.0 | 0.0 | 0.00 | 0.00 | 0.00 | 77 | 1018.4 |
| 20260508042029 | 38 | 0 | 0.0 | 0.0 | 0.00 | 0.00 | 0.00 | 78 | 1018.4 |
| 20260508041544 | 38 | 0 | 0.0 | 0.0 | 0.00 | 0.00 | 0.00 | 78 | 1018.4 |
| 20260508041033 | 37 | 0 | 0.0 | 0.0 | 0.00 | 0.00 | 0.00 | 80 | 1018.4 |
| 20260508040533 | 37 | 0 | 0.0 | 0.0 | 0.00 | 0.00 | 0.00 | 81 | 1018.4 |
| 20260508040054 | 36 | 0 | 0.0 | 0.0 | 0.00 | 0.00 | 0.00 | 81 | 1018.3 |
| 20260508035532 | 36 | 0 | 0.0 | 0.0 | 0.00 | 0.00 | 0.00 | 81 | 1018.4 |
| 20260508035029 | 36 | 0 | 0.0 | 0.0 | 0.00 | 0.00 | 0.00 | 81 | 1018.4 |
| 20260508034545 | 36 | 0 | 0.0 | 0.0 | 0.00 | 0.00 | 0.00 | 81 | 1018.5 |
| 20260508034032 | 36 | 0 | 0.0 | 0.0 | 0.00 | 0.00 | 0.00 | 81 | 1018.5 |
| 20260508033534 | 36 | 0 | 0.0 | 0.0 | 0.00 | 0.00 | 0.00 | 81 | 1018.5 |
| 20260508033048 | 35 | 0 | 0.0 | 0.0 | 0.00 | 0.00 | 0.00 | 81 | 1018.5 |
| 20260508032530 | 35 | 0 | 0.0 | 0.0 | 0.00 | 0.00 | 0.00 | 81 | 1018.6 |
| 20260508032032 | 35 | 0 | 0.0 | 0.0 | 0.00 | 0.00 | 0.00 | 81 | 1018.6 |
| 20260508031546 | 35 | 0 | 0.0 | 0.0 | 0.00 | 0.00 | 0.00 | 81 | 1018.5 |
| 20260508031030 | 35 | 0 | 0.0 | 1.0 | 0.00 | 0.00 | 0.00 | 81 | 1018.6 |
| 20260508030530 | 35 | 0 | 0.0 | 1.0 | 0.00 | 0.00 | 0.00 | 82 | 1018.6 |
| 20260508030052 | 35 | 0 | 0.0 | 1.0 | 0.00 | 0.00 | 0.00 | 82 | 1018.7 |
| 20260508025531 | 35 | 313 | 0.0 | 1.0 | 0.00 | 0.00 | 0.00 | 82 | 1018.7 |
| 20260508025030 | 34 | 57 | 0.0 | 2.0 | 0.00 | 0.00 | 0.00 | 83 | 1018.7 |
| 20260508024544 | 34 | 301 | 0.0 | 2.0 | 0.00 | 0.00 | 0.00 | 84 | 1018.8 |
| 20260508024034 | 34 | 295 | 0.0 | 1.0 | 0.00 | 0.00 | 0.00 | 83 | 1018.8 |
| 20260508023530 | 34 | 0 | 0.0 | 2.0 | 0.00 | 0.00 | 0.00 | 83 | 1018.7 |
| 20260508023042 | 34 | 295 | 0.0 | 2.0 | 0.00 | 0.00 | 0.00 | 83 | 1018.8 |
| 20260508022529 | 34 | 0 | 0.0 | 1.0 | 0.00 | 0.00 | 0.00 | 83 | 1018.8 |
| 20260508022030 | 34 | 279 | 0.0 | 1.0 | 0.00 | 0.00 | 0.00 | 84 | 1018.9 |
| 20260508021544 | 34 | 0 | 0.0 | 0.0 | 0.00 | 0.00 | 0.00 | 84 | 1018.8 |
| 20260508021033 | 34 | 0 | 0.0 | 0.0 | 0.00 | 0.00 | 0.00 | 84 | 1018.8 |
| 20260508020532 | 34 | 0 | 0.0 | 0.0 | 0.00 | 0.00 | 0.00 | 84 | 1018.9 |
| 20260508020041 | 34 | 0 | 0.0 | 0.0 | 0.00 | 0.00 | 0.00 | 84 | 1018.9 |
| 20260508015532 | 34 | 0 | 0.0 | 0.0 | 0.00 | 0.00 | 0.00 | 84 | 1018.9 |
| 20260508015032 | 34 | 0 | 0.0 | 0.0 | 0.00 | 0.00 | 0.00 | 84 | 1018.8 |
| 20260508014542 | 34 | 0 | 0.0 | 0.0 | 0.00 | 0.00 | 0.00 | 84 | 1018.9 |
| 20260508014032 | 34 | 0 | 0.0 | 0.0 | 0.00 | 0.00 | 0.00 | 83 | 1019.0 |
| 20260508013529 | 34 | 0 | 0.0 | 0.0 | 0.00 | 0.00 | 0.00 | 83 | 1018.9 |
| 20260508013046 | 34 | 0 | 0.0 | 0.0 | 0.00 | 0.00 | 0.00 | 83 | 1018.9 |
| 20260508012529 | 34 | 0 | 0.0 | 0.0 | 0.00 | 0.00 | 0.00 | 83 | 1018.8 |
| 20260508012033 | 35 | 0 | 0.0 | 0.0 | 0.00 | 0.00 | 0.00 | 82 | 1018.9 |
| 20260508011540 | 35 | 0 | 0.0 | 0.0 | 0.00 | 0.00 | 0.00 | 82 | 1018.9 |
| 20260508011032 | 35 | 0 | 0.0 | 1.0 | 0.00 | 0.00 | 0.00 | 82 | 1018.9 |
| 20260508010532 | 35 | 0 | 0.0 | 1.0 | 0.00 | 0.00 | 0.00 | 82 | 1018.9 |
| 20260508010041 | 35 | 0 | 0.0 | 1.0 | 0.00 | 0.00 | 0.00 | 82 | 1019.0 |
| 20260508005533 | 35 | 288 | 0.0 | 2.0 | 0.00 | 0.00 | 0.00 | 82 | 1018.9 |
| 20260508005033 | 35 | 0 | 0.0 | 2.0 | 0.00 | 0.00 | 0.00 | 82 | 1019.0 |
| 20260508004550 | 35 | 0 | 0.0 | 2.0 | 0.00 | 0.00 | 0.00 | 82 | 1019.0 |
| 20260508004029 | 35 | 0 | 0.0 | 2.0 | 0.00 | 0.00 | 0.00 | 82 | 1018.9 |
| 20260508003532 | 35 | 289 | 0.0 | 1.0 | 0.00 | 0.00 | 0.00 | 81 | 1019.0 |
| 20260508003048 | 35 | 0 | 0.0 | 1.0 | 0.00 | 0.00 | 0.00 | 81 | 1018.9 |
| 20260508002530 | 35 | 281 | 0.0 | 1.0 | 0.00 | 0.00 | 0.00 | 81 | 1019.0 |
| 20260508002030 | 35 | 0 | 0.0 | 1.0 | 0.00 | 0.00 | 0.00 | 81 | 1019.0 |
| 20260508001548 | 35 | 276 | 0.0 | 2.0 | 0.00 | 0.00 | 0.00 | 81 | 1019.1 |
| 20260508001029 | 36 | 297 | 0.0 | 2.0 | 0.00 | 0.00 | 0.00 | 81 | 1019.2 |
| 20260508000534 | 36 | 296 | 1.0 | 2.0 | 0.00 | 0.00 | 0.00 | 81 | 1019.1 |
| 20260508000052 | 36 | 0 | 0.0 | 2.0 | 0.00 | 0.00 | 0.00 | 81 | 1019.2 |
| 20260507235532 | 36 | 0 | 0.0 | 2.0 | 0.00 | 0.00 | 0.00 | 81 | 1019.2 |
| 20260507235030 | 36 | 0 | 0.0 | 2.0 | 0.00 | 0.00 | 0.00 | 81 | 1019.2 |
| 20260507234552 | 36 | 0 | 0.0 | 1.0 | 0.00 | 0.00 | 0.00 | 81 | 1019.2 |
| 20260507234029 | 36 | 0 | 0.0 | 1.0 | 0.00 | 0.00 | 0.00 | 81 | 1019.3 |
| 20260507233532 | 36 | 281 | 0.0 | 2.0 | 0.00 | 0.00 | 0.00 | 80 | 1019.3 |
| 20260507233109 | 37 | 288 | 1.0 | 2.0 | 0.00 | 0.00 | 0.00 | 80 | 1019.2 |
| 20260507232532 | 37 | 269 | 1.0 | 2.0 | 0.00 | 0.00 | 0.00 | 80 | 1019.4 |
| 20260507232031 | 37 | 0 | 0.0 | 0.0 | 0.00 | 0.00 | 0.00 | 79 | 1019.3 |
| 20260507231545 | 37 | 0 | 0.0 | 0.0 | 0.00 | 0.00 | 0.00 | 79 | 1019.3 |
| 20260507231030 | 37 | 0 | 0.0 | 0.0 | 0.00 | 0.00 | 0.00 | 79 | 1019.4 |
| 20260507230532 | 37 | 0 | 0.0 | 0.0 | 0.00 | 0.00 | 0.00 | 79 | 1019.4 |
| 20260507230046 | 37 | 0 | 0.0 | 0.0 | 0.00 | 0.00 | 0.00 | 79 | 1019.5 |
| 20260507225531 | 37 | 0 | 0.0 | 0.0 | 0.00 | 0.00 | 0.00 | 78 | 1019.5 |
| 20260507225033 | 37 | 0 | 0.0 | 0.0 | 0.00 | 0.00 | 0.00 | 78 | 1019.4 |
| 20260507224549 | 37 | 0 | 0.0 | 0.0 | 0.00 | 0.00 | 0.00 | 78 | 1019.3 |
| 20260507224030 | 38 | 0 | 0.0 | 0.0 | 0.00 | 0.00 | 0.00 | 78 | 1019.5 |
| 20260507223533 | 38 | 0 | 0.0 | 0.0 | 0.00 | 0.00 | 0.00 | 78 | 1019.4 |
| 20260507223058 | 38 | 0 | 0.0 | 0.0 | 0.00 | 0.00 | 0.00 | 78 | 1019.5 |
| 20260507222534 | 38 | 0 | 0.0 | 0.0 | 0.00 | 0.00 | 0.00 | 77 | 1019.5 |
| 20260507222032 | 38 | 0 | 0.0 | 0.0 | 0.00 | 0.00 | 0.00 | 77 | 1019.4 |
| 20260507221544 | 38 | 0 | 0.0 | 0.0 | 0.00 | 0.00 | 0.00 | 77 | 1019.4 |
| 20260507221031 | 38 | 0 | 0.0 | 0.0 | 0.00 | 0.00 | 0.00 | 76 | 1019.4 |
| 20260507220531 | 38 | 0 | 0.0 | 0.0 | 0.00 | 0.00 | 0.00 | 76 | 1019.4 |
| 20260507220042 | 38 | 0 | 0.0 | 0.0 | 0.00 | 0.00 | 0.00 | 75 | 1019.5 |
| 20260507215530 | 38 | 0 | 0.0 | 0.0 | 0.00 | 0.00 | 0.00 | 75 | 1019.4 |
| 20260507215033 | 38 | 0 | 0.0 | 0.0 | 0.00 | 0.00 | 0.00 | 74 | 1019.5 |
| 20260507214547 | 38 | 0 | 0.0 | 0.0 | 0.00 | 0.00 | 0.00 | 74 | 1019.5 |
| 20260507214034 | 38 | 0 | 0.0 | 0.0 | 0.00 | 0.00 | 0.00 | 74 | 1019.5 |
| 20260507213530 | 38 | 0 | 0.0 | 0.0 | 0.00 | 0.00 | 0.00 | 74 | 1019.4 |
| 20260507213045 | 38 | 0 | 0.0 | 0.0 | 0.00 | 0.00 | 0.00 | 74 | 1019.4 |
| 20260507212532 | 38 | 0 | 0.0 | 0.0 | 0.00 | 0.00 | 0.00 | 74 | 1019.3 |
| 20260507212032 | 38 | 0 | 0.0 | 0.0 | 0.00 | 0.00 | 0.00 | 74 | 1019.3 |
| 20260507211555 | 38 | 0 | 0.0 | 0.0 | 0.00 | 0.00 | 0.00 | 74 | 1019.3 |
| 20260507211031 | 38 | 0 | 0.0 | 0.0 | 0.00 | 0.00 | 0.00 | 74 | 1019.2 |
| 20260507210530 | 38 | 0 | 0.0 | 0.0 | 0.00 | 0.00 | 0.00 | 74 | 1019.3 |
| 20260507210104 | 38 | 0 | 0.0 | 0.0 | 0.00 | 0.00 | 0.00 | 74 | 1019.2 |
| 20260507205529 | 39 | 0 | 0.0 | 0.0 | 0.00 | 0.00 | 0.00 | 74 | 1019.3 |
| 20260507205030 | 39 | 0 | 0.0 | 0.0 | 0.00 | 0.00 | 0.00 | 74 | 1019.3 |
| 20260507204547 | 39 | 0 | 0.0 | 0.0 | 0.00 | 0.00 | 0.00 | 74 | 1019.2 |
| 20260507204029 | 39 | 0 | 0.0 | 0.0 | 0.00 | 0.00 | 0.00 | 74 | 1019.2 |
| 20260507203530 | 39 | 0 | 0.0 | 0.0 | 0.00 | 0.00 | 0.00 | 74 | 1019.2 |
| 20260507203040 | 39 | 0 | 0.0 | 0.0 | 0.00 | 0.00 | 0.00 | 73 | 1019.1 |
| 20260507202529 | 39 | 0 | 0.0 | 0.0 | 0.00 | 0.00 | 0.00 | 73 | 1019.1 |
| 20260507202031 | 39 | 0 | 0.0 | 0.0 | 0.00 | 0.00 | 0.00 | 73 | 1018.9 |
| 20260507201545 | 39 | 0 | 0.0 | 0.0 | 0.00 | 0.00 | 0.00 | 72 | 1019.0 |
| 20260507201032 | 39 | 0 | 0.0 | 0.0 | 0.00 | 0.00 | 0.00 | 72 | 1019.0 |
| 20260507200529 | 39 | 0 | 0.0 | 0.0 | 0.00 | 0.00 | 0.00 | 72 | 1019.0 |
| 20260507200052 | 39 | 0 | 0.0 | 0.0 | 0.00 | 0.00 | 0.00 | 72 | 1019.0 |
| 20260507195532 | 39 | 0 | 0.0 | 0.0 | 0.00 | 0.00 | 0.00 | 72 | 1018.9 |
| 20260507195029 | 39 | 0 | 0.0 | 0.0 | 0.00 | 0.00 | 0.00 | 71 | 1018.8 |
| 20260507194550 | 39 | 0 | 0.0 | 0.0 | 0.00 | 0.00 | 0.00 | 71 | 1018.7 |
| 20260507194030 | 40 | 0 | 0.0 | 0.0 | 0.00 | 0.00 | 0.00 | 71 | 1018.8 |
| 20260507193530 | 39 | 0 | 0.0 | 0.0 | 0.00 | 0.00 | 0.00 | 72 | 1018.7 |
| 20260507193047 | 40 | 0 | 0.0 | 1.0 | 0.00 | 0.00 | 0.00 | 72 | 1018.6 |
| 20260507192529 | 39 | 0 | 0.0 | 2.0 | 0.00 | 0.00 | 0.00 | 72 | 1018.5 |
| 20260507192029 | 40 | 282 | 0.0 | 2.0 | 0.00 | 0.00 | 0.00 | 72 | 1018.6 |
| 20260507191547 | 40 | 265 | 0.0 | 1.0 | 0.00 | 0.00 | 0.00 | 71 | 1018.5 |
| 20260507191032 | 40 | 0 | 0.0 | 0.0 | 0.00 | 0.00 | 0.00 | 71 | 1018.4 |
| 20260507190530 | 40 | 0 | 0.0 | 0.0 | 0.00 | 0.00 | 0.00 | 71 | 1018.4 |
| 20260507190056 | 40 | 0 | 0.0 | 0.0 | 0.00 | 0.00 | 0.00 | 71 | 1018.4 |
| 20260507185532 | 40 | 0 | 0.0 | 0.0 | 0.00 | 0.00 | 0.00 | 71 | 1018.4 |
| 20260507185034 | 40 | 0 | 0.0 | 0.0 | 0.00 | 0.00 | 0.00 | 71 | 1018.3 |
| 20260507184546 | 40 | 0 | 0.0 | 0.0 | 0.00 | 0.00 | 0.00 | 71 | 1018.2 |
| 20260507184032 | 40 | 0 | 0.0 | 0.0 | 0.00 | 0.00 | 0.00 | 71 | 1018.2 |
| 20260507183531 | 40 | 0 | 0.0 | 0.0 | 0.00 | 0.00 | 0.00 | 70 | 1018.2 |
| 20260507183050 | 40 | 0 | 0.0 | 0.0 | 0.00 | 0.00 | 0.00 | 71 | 1018.3 |
| 20260507182530 | 40 | 0 | 0.0 | 0.0 | 0.00 | 0.00 | 0.00 | 70 | 1018.2 |
| 20260507182030 | 40 | 0 | 0.0 | 0.0 | 0.00 | 0.00 | 0.00 | 70 | 1018.3 |
| 20260507181544 | 40 | 0 | 0.0 | 0.0 | 0.00 | 0.00 | 0.00 | 70 | 1018.2 |
| 20260507181032 | 40 | 0 | 0.0 | 0.0 | 0.00 | 0.00 | 0.00 | 70 | 1018.2 |
| 20260507180530 | 40 | 0 | 0.0 | 1.0 | 0.00 | 0.00 | 0.00 | 69 | 1018.3 |
| 20260507180046 | 40 | 0 | 0.0 | 1.0 | 0.00 | 0.00 | 0.00 | 69 | 1018.3 |
| 20260507175530 | 41 | 0 | 0.0 | 1.0 | 0.00 | 0.00 | 0.00 | 68 | 1018.3 |
| 20260507175030 | 41 | 243 | 0.0 | 1.0 | 0.00 | 0.00 | 0.00 | 69 | 1018.3 |
| 20260507174554 | 41 | 0 | 0.0 | 1.0 | 0.00 | 0.00 | 0.00 | 70 | 1018.3 |
| 20260507174030 | 41 | 0 | 0.0 | 0.0 | 0.00 | 0.00 | 0.00 | 69 | 1018.3 |
| 20260507173530 | 41 | 0 | 0.0 | 0.0 | 0.00 | 0.00 | 0.00 | 68 | 1018.2 |
| 20260507173048 | 41 | 0 | 0.0 | 0.0 | 0.00 | 0.00 | 0.00 | 68 | 1018.1 |
| 20260507172530 | 41 | 0 | 0.0 | 0.0 | 0.00 | 0.00 | 0.00 | 67 | 1018.1 |
| 20260507172029 | 42 | 0 | 0.0 | 1.0 | 0.00 | 0.00 | 0.00 | 67 | 1018.1 |
| 20260507171542 | 42 | 0 | 0.0 | 1.0 | 0.00 | 0.00 | 0.00 | 66 | 1017.8 |
| 20260507171032 | 43 | 0 | 0.0 | 5.0 | 0.00 | 0.00 | 0.00 | 64 | 1017.8 |
| 20260507170531 | 43 | 0 | 0.0 | 5.0 | 0.00 | 0.00 | 0.00 | 62 | 1017.8 |
| 20260507170048 | 44 | 0 | 1.0 | 6.0 | 0.00 | 0.00 | 0.00 | 60 | 1017.9 |
| 20260507165531 | 44 | 51 | 1.0 | 6.0 | 0.00 | 0.00 | 0.00 | 59 | 1017.9 |
| 20260507165029 | 44 | 154 | 1.0 | 6.0 | 0.00 | 0.00 | 0.00 | 59 | 1018.0 |
| 20260507164603 | 45 | 37 | 1.0 | 3.0 | 0.00 | 0.00 | 0.00 | 59 | 1018.0 |
| 20260507164030 | 45 | 0 | 0.0 | 9.0 | 0.00 | 0.00 | 0.00 | 58 | 1017.9 |
| 20260507163533 | 45 | 77 | 2.0 | 9.0 | 0.00 | 0.00 | 0.00 | 55 | 1017.8 |
| 20260507163047 | 46 | 136 | 2.0 | 9.0 | 0.00 | 0.00 | 0.00 | 55 | 1017.7 |
| 20260507162530 | 47 | 276 | 1.0 | 9.0 | 0.00 | 0.00 | 0.00 | 52 | 1017.7 |
| 20260507162030 | 48 | 27 | 3.0 | 8.0 | 0.00 | 0.00 | 0.00 | 52 | 1017.8 |
| 20260507161556 | 48 | 0 | 1.0 | 7.0 | 0.00 | 0.00 | 0.00 | 53 | 1017.8 |
| 20260507161030 | 47 | 141 | 2.0 | 7.0 | 0.00 | 0.00 | 0.00 | 53 | 1017.8 |
| 20260507160530 | 48 | 151 | 2.0 | 7.0 | 0.00 | 0.00 | 0.00 | 51 | 1017.8 |
| 20260507160044 | 48 | 142 | 0.0 | 8.0 | 0.00 | 0.00 | 0.00 | 54 | 1017.7 |
| 20260507155529 | 47 | 155 | 2.0 | 8.0 | 0.00 | 0.00 | 0.00 | 54 | 1017.8 |
| 20260507155030 | 47 | 278 | 3.0 | 8.0 | 0.00 | 0.00 | 0.00 | 53 | 1017.7 |
| 20260507154549 | 48 | 158 | 2.0 | 7.0 | 0.00 | 0.00 | 0.00 | 53 | 1017.6 |
| 20260507154030 | 48 | 333 | 2.0 | 5.0 | 0.00 | 0.00 | 0.00 | 52 | 1017.6 |
| 20260507153530 | 48 | 40 | 1.0 | 10.0 | 0.00 | 0.00 | 0.00 | 54 | 1017.6 |
| 20260507153045 | 48 | 278 | 3.0 | 10.0 | 0.00 | 0.00 | 0.00 | 53 | 1017.6 |
| 20260507152530 | 48 | 44 | 2.0 | 9.0 | 0.00 | 0.00 | 0.00 | 54 | 1017.6 |
| 20260507152031 | 48 | 0 | 2.0 | 8.0 | 0.00 | 0.00 | 0.00 | 55 | 1017.5 |
| 20260507151540 | 48 | 68 | 3.0 | 8.0 | 0.00 | 0.00 | 0.00 | 54 | 1017.4 |
| 20260507151030 | 49 | 330 | 1.0 | 5.0 | 0.00 | 0.00 | 0.00 | 56 | 1017.3 |
| 20260507150530 | 48 | 155 | 2.0 | 5.0 | 0.00 | 0.00 | 0.00 | 57 | 1017.4 |
| 20260507150047 | 48 | 131 | 2.0 | 7.0 | 0.00 | 0.00 | 0.00 | 56 | 1017.3 |
| 20260507145529 | 48 | 64 | 2.0 | 7.0 | 0.00 | 0.00 | 0.00 | 57 | 1017.3 |
| 20260507145032 | 48 | 351 | 2.0 | 6.0 | 0.00 | 0.00 | 0.00 | 58 | 1017.2 |
| 20260507144547 | 49 | 37 | 2.0 | 12.0 | 0.00 | 0.00 | 0.00 | 57 | 1017.2 |
| 20260507144029 | 48 | 359 | 2.0 | 12.0 | 0.00 | 0.00 | 0.00 | 59 | 1017.1 |
| 20260507143529 | 47 | 114 | 1.0 | 10.0 | 0.00 | 0.00 | 0.00 | 59 | 1017.2 |
| 20260507143049 | 47 | 29 | 2.0 | 10.0 | 0.00 | 0.00 | 0.00 | 60 | 1017.1 |
| 20260507142530 | 49 | 25 | 2.0 | 5.0 | 0.00 | 0.00 | 0.00 | 56 | 1017.2 |
| 20260507142031 | 49 | 349 | 2.0 | 5.0 | 0.00 | 0.00 | 0.00 | 56 | 1017.2 |
| 20260507141540 | 49 | 57 | 1.0 | 7.0 | 0.00 | 0.00 | 0.00 | 57 | 1017.2 |
| 20260507141032 | 48 | 88 | 2.0 | 13.0 | 0.00 | 0.00 | 0.00 | 56 | 1017.3 |
| 20260507140529 | 48 | 88 | 2.0 | 13.0 | 0.00 | 0.00 | 0.00 | 56 | 1017.2 |
| 20260507140046 | 48 | 158 | 3.0 | 13.0 | 0.00 | 0.00 | 0.00 | 56 | 1017.1 |
| 20260507135529 | 49 | 120 | 2.0 | 12.0 | 0.00 | 0.00 | 0.00 | 55 | 1017.1 |
| 20260507135029 | 48 | 202 | 3.0 | 6.0 | 0.00 | 0.00 | 0.00 | 58 | 1017.1 |
| 20260507134545 | 48 | 27 | 1.0 | 8.0 | 0.00 | 0.00 | 0.00 | 58 | 1017.1 |
| 20260507134031 | 48 | 60 | 2.0 | 8.0 | 0.00 | 0.00 | 0.00 | 58 | 1017.0 |
| 20260507133531 | 49 | 349 | 2.0 | 4.0 | 0.00 | 0.00 | 0.00 | 58 | 1016.8 |
| 20260507133048 | 49 | 107 | 1.0 | 5.0 | 0.00 | 0.00 | 0.00 | 61 | 1017.1 |
| 20260507132533 | 48 | 25 | 1.0 | 7.0 | 0.00 | 0.00 | 0.00 | 61 | 1017.1 |
| 20260507132030 | 48 | 335 | 0.0 | 7.0 | 0.00 | 0.00 | 0.00 | 62 | 1017.1 |
| 20260507131541 | 48 | 200 | 2.0 | 7.0 | 0.00 | 0.00 | 0.00 | 61 | 1017.1 |
| 20260507131030 | 47 | 82 | 0.0 | 7.0 | 0.00 | 0.00 | 0.00 | 64 | 1017.0 |
| 20260507130533 | 47 | 43 | 1.0 | 5.0 | 0.00 | 0.00 | 0.00 | 66 | 1016.8 |
| 20260507130043 | 46 | 63 | 1.0 | 5.0 | 0.00 | 0.00 | 0.00 | 67 | 1016.9 |
| 20260507125531 | 46 | 0 | 1.0 | 7.0 | 0.00 | 0.00 | 0.00 | 67 | 1017.0 |
| 20260507125029 | 46 | 8 | 1.0 | 7.0 | 0.00 | 0.00 | 0.00 | 68 | 1016.8 |
| 20260507124540 | 46 | 155 | 2.0 | 8.0 | 0.00 | 0.00 | 0.00 | 65 | 1016.8 |
| 20260507124030 | 47 | 46 | 2.0 | 8.0 | 0.00 | 0.00 | 0.00 | 59 | 1016.6 |
| 20260507123529 | 46 | 131 | 2.0 | 6.0 | 0.00 | 0.00 | 0.00 | 57 | 1016.8 |
| 20260507123044 | 46 | 112 | 2.0 | 6.0 | 0.00 | 0.00 | 0.00 | 58 | 1016.7 |
| 20260507122535 | 45 | 56 | 3.0 | 7.0 | 0.00 | 0.00 | 0.00 | 59 | 1016.6 |
| 20260507122029 | 45 | 126 | 1.0 | 7.0 | 0.00 | 0.00 | 0.00 | 59 | 1016.6 |
| 20260507121542 | 45 | 58 | 2.0 | 5.0 | 0.00 | 0.00 | 0.00 | 59 | 1016.7 |
| 20260507121030 | 46 | 44 | 1.0 | 4.0 | 0.00 | 0.00 | 0.00 | 59 | 1016.6 |
| 20260507120530 | 46 | 141 | 2.0 | 4.0 | 0.00 | 0.00 | 0.00 | 62 | 1016.6 |
| 20260507120041 | 46 | 72 | 1.0 | 4.0 | 0.00 | 0.00 | 0.00 | 57 | 1016.4 |
| 20260507115532 | 46 | 142 | 0.0 | 5.0 | 0.00 | 0.00 | 0.00 | 60 | 1016.5 |
| 20260507115030 | 45 | 0 | 0.0 | 6.0 | 0.00 | 0.00 | 0.00 | 61 | 1016.5 |
| 20260507114559 | 45 | 26 | 2.0 | 6.0 | 0.00 | 0.00 | 0.00 | 60 | 1016.5 |
| 20260507114030 | 45 | 134 | 1.0 | 6.0 | 0.00 | 0.00 | 0.00 | 61 | 1016.4 |
| 20260507113531 | 45 | 26 | 1.0 | 8.0 | 0.00 | 0.00 | 0.00 | 60 | 1016.4 |
| 20260507113104 | 46 | 0 | 1.0 | 8.0 | 0.00 | 0.00 | 0.00 | 60 | 1016.4 |
| 20260507112532 | 46 | 58 | 2.0 | 8.0 | 0.00 | 0.00 | 0.00 | 59 | 1016.3 |
| 20260507112032 | 46 | 79 | 1.0 | 13.0 | 0.00 | 0.00 | 0.00 | 57 | 1016.3 |
| 20260507111545 | 46 | 123 | 2.0 | 13.0 | 0.00 | 0.00 | 0.00 | 54 | 1016.2 |
| 20260507111029 | 46 | 79 | 3.0 | 13.0 | 0.00 | 0.00 | 0.00 | 54 | 1016.1 |
| 20260507110529 | 46 | 60 | 0.0 | 4.0 | 0.00 | 0.00 | 0.00 | 61 | 1016.0 |
| 20260507110047 | 46 | 76 | 2.0 | 5.0 | 0.00 | 0.00 | 0.00 | 57 | 1015.9 |
| 20260507105530 | 46 | 285 | 1.0 | 5.0 | 0.00 | 0.00 | 0.00 | 56 | 1015.8 |
| 20260507105032 | 45 | 46 | 1.0 | 4.0 | 0.00 | 0.00 | 0.00 | 54 | 1015.8 |
| 20260507104543 | 45 | 0 | 0.0 | 5.0 | 0.00 | 0.00 | 0.00 | 55 | 1015.9 |
| 20260507104031 | 44 | 0 | 1.0 | 5.0 | 0.00 | 0.00 | 0.00 | 58 | 1015.9 |
| 20260507103531 | 43 | 167 | 0.0 | 5.0 | 0.00 | 0.00 | 0.00 | 62 | 1015.8 |
| 20260507103053 | 43 | 29 | 2.0 | 6.0 | 0.00 | 0.00 | 0.00 | 65 | 1015.8 |
| 20260507102530 | 44 | 23 | 2.0 | 6.0 | 0.00 | 0.00 | 0.00 | 61 | 1015.7 |
| 20260507102031 | 44 | 34 | 1.0 | 6.0 | 0.00 | 0.00 | 0.00 | 56 | 1015.7 |
| 20260507101547 | 45 | 333 | 0.0 | 6.0 | 0.00 | 0.00 | 0.00 | 56 | 1015.7 |
| 20260507101032 | 45 | 18 | 1.0 | 6.0 | 0.00 | 0.00 | 0.00 | 55 | 1015.6 |
| 20260507100529 | 45 | 48 | 2.0 | 6.0 | 0.00 | 0.00 | 0.00 | 55 | 1015.5 |
| 20260507100045 | 44 | 293 | 2.0 | 6.0 | 0.00 | 0.00 | 0.00 | 57 | 1015.5 |
| 20260507095529 | 42 | 108 | 0.0 | 3.0 | 0.00 | 0.00 | 0.00 | 71 | 1015.4 |
| 20260507095120 | 41 | 0 | 1.0 | 6.0 | 0.00 | 0.00 | 0.00 | 70 | 1015.4 |
| 20260507094543 | 41 | 59 | 1.0 | 6.0 | 0.00 | 0.00 | 0.00 | 71 | 1015.5 |
| 20260507094029 | 42 | 103 | 1.0 | 4.0 | 0.00 | 0.00 | 0.00 | 70 | 1015.4 |
| 20260507093529 | 42 | 0 | 1.0 | 3.0 | 0.00 | 0.00 | 0.00 | 70 | 1015.6 |
| 20260507093041 | 41 | 61 | 0.0 | 3.0 | 0.00 | 0.00 | 0.00 | 71 | 1015.4 |
| 20260507092531 | 42 | 71 | 1.0 | 3.0 | 0.00 | 0.00 | 0.00 | 71 | 1015.4 |
| 20260507092029 | 42 | 0 | 0.0 | 4.0 | 0.00 | 0.00 | 0.00 | 72 | 1015.4 |
| 20260507091543 | 42 | 44 | 1.0 | 4.0 | 0.00 | 0.00 | 0.00 | 71 | 1015.2 |
| 20260507091031 | 42 | 0 | 0.0 | 4.0 | 0.00 | 0.00 | 0.00 | 71 | 1015.2 |
| 20260507090530 | 42 | 0 | 0.0 | 6.0 | 0.00 | 0.00 | 0.00 | 72 | 1015.2 |
| 20260507090045 | 42 | 14 | 1.0 | 6.0 | 0.00 | 0.00 | 0.00 | 71 | 1015.3 |
| 20260507085531 | 42 | 0 | 2.0 | 7.0 | 0.00 | 0.00 | 0.00 | 70 | 1015.2 |
| 20260507085030 | 42 | 23 | 2.0 | 7.0 | 0.00 | 0.00 | 0.00 | 70 | 1015.2 |
| 20260507084546 | 43 | 359 | 0.0 | 3.0 | 0.00 | 0.00 | 0.00 | 71 | 1015.2 |
| 20260507084030 | 42 | 0 | 0.0 | 3.0 | 0.00 | 0.00 | 0.00 | 71 | 1015.1 |
| 20260507083532 | 43 | 0 | 0.0 | 4.0 | 0.00 | 0.00 | 0.00 | 68 | 1015.2 |
| 20260507083041 | 43 | 98 | 1.0 | 4.0 | 0.00 | 0.00 | 0.00 | 68 | 1015.0 |
| 20260507082529 | 44 | 30 | 1.0 | 4.0 | 0.00 | 0.00 | 0.00 | 68 | 1015.0 |
| 20260507082028 | 44 | 58 | 2.0 | 4.0 | 0.00 | 0.00 | 0.00 | 68 | 1014.9 |
| 20260507081553 | 44 | 46 | 2.0 | 5.0 | 0.00 | 0.00 | 0.00 | 67 | 1014.9 |
| 20260507081030 | 43 | 125 | 1.0 | 6.0 | 0.00 | 0.00 | 0.00 | 69 | 1014.9 |
| 20260507080530 | 44 | 79 | 1.0 | 6.0 | 0.00 | 0.00 | 0.00 | 69 | 1014.8 |
| 20260507080044 | 43 | 60 | 1.0 | 3.0 | 0.00 | 0.00 | 0.00 | 68 | 1014.7 |
| 20260507075531 | 43 | 51 | 0.0 | 4.0 | 0.00 | 0.00 | 0.00 | 69 | 1014.8 |
| 20260507075030 | 43 | 109 | 1.0 | 4.0 | 0.00 | 0.00 | 0.00 | 68 | 1014.6 |
| 20260507074545 | 43 | 119 | 1.0 | 4.0 | 0.00 | 0.00 | 0.00 | 68 | 1014.6 |
| 20260507074032 | 42 | 246 | 2.0 | 5.0 | 0.00 | 0.00 | 0.00 | 69 | 1014.6 |